HYS983 EDDF-EGLL

Flight info

Callsign HYS983
Flight time N/A
Altitude 38000
Route OBOKA3W/25C OBOKA Z29 TORNU DCT ABNED L980 LOGAN
Aircraft A320/M-SDE3FGHIRWY/LB1

Departure

Time N/A
Airport Frankfurt Main Airport (EDDF)

Arrival

Time 2026-05-05 13:44
Airport London Heathrow Airport (EGLL)
Time Latitude Longitude Altitude Speed Heading
2026-05-05 13:14 51.78066 3.37487 33972 ft 457 kts 295°
2026-05-05 13:14 51.79585 3.32999 33952 ft 454 kts 295°
2026-05-05 13:14 51.82586 3.24028 33951 ft 452 kts 292°
2026-05-05 13:15 51.84289 3.14451 33958 ft 444 kts 273°
2026-05-05 13:15 51.84095 3.04546 33959 ft 440 kts 261°
2026-05-05 13:16 51.83452 2.94704 33960 ft 440 kts 262°
2026-05-05 13:16 51.82812 2.84862 33960 ft 438 kts 262°
2026-05-05 13:17 51.82171 2.75197 33894 ft 427 kts 262°
2026-05-05 13:17 51.81850 2.70483 33608 ft 417 kts 261°
2026-05-05 13:17 51.81534 2.65894 33618 ft 401 kts 261°
2026-05-05 13:18 51.81228 2.61469 33876 ft 395 kts 261°
2026-05-05 13:18 51.80921 2.57041 33957 ft 396 kts 261°
2026-05-05 13:18 51.80307 2.48177 33971 ft 396 kts 261°
2026-05-05 13:19 51.79997 2.43750 33372 ft 399 kts 261°
2026-05-05 13:19 51.79675 2.39226 32476 ft 406 kts 261°
2026-05-05 13:19 51.79358 2.34782 32091 ft 400 kts 261°
2026-05-05 13:19 51.79040 2.30333 31638 ft 396 kts 261°
2026-05-05 13:20 51.78722 2.25935 31190 ft 392 kts 261°
2026-05-05 13:20 51.78407 2.21572 30767 ft 389 kts 261°
2026-05-05 13:20 51.78121 2.17241 30346 ft 386 kts 262°
2026-05-05 13:20 51.77869 2.12932 29909 ft 384 kts 262°
2026-05-05 13:21 51.77631 2.08647 29486 ft 380 kts 262°
2026-05-05 13:21 51.77398 2.04413 29094 ft 376 kts 262°
2026-05-05 13:21 51.77162 2.00221 28704 ft 373 kts 262°
2026-05-05 13:21 51.76921 1.96079 28330 ft 369 kts 262°
2026-05-05 13:22 51.76675 1.91962 27967 ft 366 kts 262°
2026-05-05 13:22 51.76427 1.87891 27574 ft 363 kts 262°
2026-05-05 13:22 51.76178 1.83856 27192 ft 360 kts 262°
2026-05-05 13:22 51.75930 1.79854 26812 ft 357 kts 262°
2026-05-05 13:23 51.75683 1.75882 26417 ft 354 kts 262°
2026-05-05 13:23 51.75439 1.71944 26037 ft 352 kts 261°
2026-05-05 13:23 51.75192 1.68029 25632 ft 350 kts 262°
2026-05-05 13:23 51.74944 1.64130 25237 ft 349 kts 261°
2026-05-05 13:24 51.74700 1.60279 24986 ft 350 kts 261°
2026-05-05 13:24 51.74447 1.56311 24900 ft 359 kts 261°
2026-05-05 13:24 51.74187 1.52228 24057 ft 371 kts 261°
2026-05-05 13:24 51.73917 1.48021 23298 ft 379 kts 262°
2026-05-05 13:25 51.73645 1.43776 22577 ft 382 kts 262°
2026-05-05 13:25 51.73372 1.39545 22202 ft 376 kts 263°
2026-05-05 13:25 51.73104 1.35400 21689 ft 374 kts 262°
2026-05-05 13:25 51.72830 1.31231 21195 ft 371 kts 262°
2026-05-05 13:26 51.72558 1.27096 20710 ft 368 kts 263°
2026-05-05 13:26 51.72286 1.23003 20229 ft 366 kts 263°
2026-05-05 13:26 51.72015 1.18934 19750 ft 364 kts 263°
2026-05-05 13:26 51.71743 1.14866 19270 ft 362 kts 263°
2026-05-05 13:27 51.71469 1.10837 18834 ft 360 kts 263°
2026-05-05 13:27 51.71198 1.06871 18399 ft 357 kts 263°
2026-05-05 13:27 51.70924 1.02907 17923 ft 354 kts 263°
2026-05-05 13:27 51.70652 0.98965 17419 ft 352 kts 263°
2026-05-05 13:28 51.70385 0.95048 16906 ft 350 kts 264°
2026-05-05 13:28 51.70121 0.91157 16483 ft 346 kts 264°
2026-05-05 13:28 51.69865 0.87333 16240 ft 337 kts 264°
2026-05-05 13:28 51.69610 0.83637 16109 ft 326 kts 264°
2026-05-05 13:29 51.69354 0.80042 15864 ft 320 kts 263°
2026-05-05 13:29 51.69101 0.76541 15546 ft 318 kts 264°
2026-05-05 13:29 51.68846 0.73005 15183 ft 317 kts 264°
2026-05-05 13:29 51.68592 0.69495 14853 ft 315 kts 264°
2026-05-05 13:30 51.68336 0.65989 14514 ft 313 kts 264°
2026-05-05 13:30 51.68089 0.62519 14197 ft 311 kts 264°
2026-05-05 13:30 51.67842 0.59048 13896 ft 310 kts 264°
2026-05-05 13:30 51.67585 0.55474 13704 ft 339 kts 264°
2026-05-05 13:31 51.67303 0.51552 13499 ft 364 kts 264°
2026-05-05 13:31 51.66998 0.47309 13272 ft 396 kts 264°
2026-05-05 13:31 51.66678 0.42865 13060 ft 409 kts 264°
2026-05-05 13:31 51.66347 0.38285 12845 ft 411 kts 264°
2026-05-05 13:32 51.66009 0.33713 12638 ft 411 kts 264°
2026-05-05 13:32 51.65666 0.29133 12357 ft 409 kts 264°
2026-05-05 13:32 51.65323 0.24593 12049 ft 407 kts 263°
2026-05-05 13:32 51.64976 0.20078 11744 ft 405 kts 263°
2026-05-05 13:33 51.64634 0.15581 11442 ft 403 kts 264°
2026-05-05 13:33 51.64322 0.11104 11143 ft 401 kts 264°
2026-05-05 13:33 51.64064 0.06635 10840 ft 399 kts 265°
2026-05-05 13:33 51.63837 0.02209 10552 ft 397 kts 266°
2026-05-05 13:34 51.63620 -0.02154 10283 ft 395 kts 266°
2026-05-05 13:34 51.63392 -0.06601 9994 ft 393 kts 266°
2026-05-05 13:34 51.63158 -0.10971 9690 ft 391 kts 266°
2026-05-05 13:34 51.62917 -0.15324 9373 ft 389 kts 265°
2026-05-05 13:35 51.62669 -0.19623 9041 ft 388 kts 265°
2026-05-05 13:35 51.62416 -0.23936 8743 ft 386 kts 265°
2026-05-05 13:35 51.62164 -0.28234 8432 ft 384 kts 265°
2026-05-05 13:35 51.61913 -0.32472 8099 ft 383 kts 265°
2026-05-05 13:36 51.61662 -0.36733 7797 ft 381 kts 265°
2026-05-05 13:36 51.61415 -0.40972 7490 ft 380 kts 265°
2026-05-05 13:36 51.61167 -0.45197 7190 ft 378 kts 265°
2026-05-05 13:36 51.60917 -0.49416 6893 ft 377 kts 265°
2026-05-05 13:37 51.60664 -0.53608 6600 ft 375 kts 265°
2026-05-05 13:37 51.60410 -0.57771 6300 ft 373 kts 265°
2026-05-05 13:37 51.60156 -0.61913 5985 ft 372 kts 264°
2026-05-05 13:37 51.59904 -0.65965 5680 ft 360 kts 265°
2026-05-05 13:38 51.59656 -0.69904 5366 ft 348 kts 264°
2026-05-05 13:38 51.59416 -0.73725 5061 ft 340 kts 265°
2026-05-05 13:38 51.58843 -0.77360 4766 ft 334 kts 243°
2026-05-05 13:38 51.57336 -0.80138 4440 ft 329 kts 213°
2026-05-05 13:39 51.55255 -0.81372 4133 ft 317 kts 185°
2026-05-05 13:39 51.53129 -0.81261 3818 ft 295 kts 170°
2026-05-05 13:39 51.51189 -0.80623 3514 ft 275 kts 158°
2026-05-05 13:39 51.49592 -0.79261 3214 ft 257 kts 138°
2026-05-05 13:40 51.48446 -0.77230 3010 ft 235 kts 118°
2026-05-05 13:40 51.47823 -0.74993 2998 ft 209 kts 101°
2026-05-05 13:40 51.47622 -0.72737 2981 ft 203 kts 87°
2026-05-05 13:40 51.47635 -0.70471 2801 ft 202 kts 87°
2026-05-05 13:41 51.47651 -0.68203 2544 ft 203 kts 87°
2026-05-05 13:41 51.47664 -0.65962 2294 ft 197 kts 86°
2026-05-05 13:41 51.47674 -0.63864 2015 ft 179 kts 85°
2026-05-05 13:41 51.47684 -0.61968 1778 ft 165 kts 86°
2026-05-05 13:42 51.47692 -0.60197 1580 ft 150 kts 86°
2026-05-05 13:42 51.47701 -0.58598 1390 ft 137 kts 88°
2026-05-05 13:42 51.47709 -0.57088 1199 ft 135 kts 86°
2026-05-05 13:42 51.47716 -0.55597 1014 ft 132 kts 84°
2026-05-05 13:43 51.47720 -0.54129 793 ft 133 kts 87°
2026-05-05 13:43 51.47722 -0.52629 689 ft 134 kts 86°
2026-05-05 13:43 51.47739 -0.51161 461 ft 128 kts 87°
2026-05-05 13:43 51.47745 -0.49771 267 ft 123 kts 84°
2026-05-05 13:44 51.47752 -0.48421 128 ft 120 kts 86°
2026-05-05 13:44 51.47755 -0.47199 92 ft 94 kts 88°
2026-05-05 13:44 51.47758 -0.46628 96 ft 13 kts 92°
2026-05-05 13:44 51.47756 -0.46544 99 ft 14 kts 92°
2026-05-05 13:45 51.47755 -0.46343 93 ft 21 kts 90°
2026-05-05 13:45 51.47687 -0.46126 90 ft 22 kts 144°
2026-05-05 13:45 51.47585 -0.46066 89 ft 15 kts 193°
2026-05-05 13:45 51.47516 -0.46148 92 ft 14 kts 258°
2026-05-05 13:46 51.47515 -0.46324 89 ft 18 kts 271°
2026-05-05 13:46 51.47516 -0.46529 92 ft 19 kts 270°
2026-05-05 13:46 51.47504 -0.46760 92 ft 23 kts 259°
2026-05-05 13:46 51.47494 -0.47031 91 ft 25 kts 270°
2026-05-05 13:47 51.47494 -0.47221 90 ft 10 kts 270°
2026-05-05 13:47 51.47489 -0.47352 89 ft 13 kts 253°
2026-05-05 13:47 51.47414 -0.47364 91 ft 12 kts 173°
2026-05-05 13:47 51.47323 -0.47355 90 ft 15 kts 179°
2026-05-05 13:48 51.47206 -0.47351 88 ft 18 kts 178°
2026-05-05 13:48 51.47089 -0.47351 87 ft 17 kts 182°